Main page
METAR-TAF:

METAR-TAF

Airports :

Pembrey Airport

Pembrey, Wales

latitude: 51-43N, longitude: 004-22W, elevation: 3 m

Current weather observation

The report was made 53 minutes ago, at 19:50 UTC
Wind 5 kt from the North/Northeast
Temperature 6°C
Humidity 87%
Pressure 1038 hPa
Visibility 10 km or more

METAR: EGOP 221950Z AUTO 03005KT 9999 // OVC021/// 06/04 Q1038

Time: 20:43 (20:43 UTC)


TAF: missing

Weather observations and forecasts of more than 4000 airports (METAR and TAF reports).

The available stations are represented by yellow and red dots on the map.

Hover mouse over dot to see the name of the station.

Then click to see weather observations and forecasts.

To change the map : click on the green buttons with a black cross to zoom in, on the green button with a dash to zoom out, or on the green arrows for adjacent maps.


METAR-TAF: